| time (UTC) | temp F | wind direction | speed MPH | gust MPH | rain 1hr in | rain 24hr in | rain mn in | humidity % | barometer mb |
| 20260504044440 | 44 | 270 | 0.0 | 0.0 | 0.00 | 0.00 | 0.00 | 64 | 1015.0 |
| 20260504044324 | 44 | 270 | 0.0 | 0.0 | 0.00 | 0.00 | 0.00 | 65 | 1015.1 |
| 20260504043323 | 44 | 270 | 0.0 | 0.0 | 0.00 | 0.00 | 0.00 | 63 | 1014.9 |
| 20260504042325 | 45 | 270 | 0.0 | 1.0 | 0.00 | 0.00 | 0.00 | 64 | 1014.9 |
| 20260504041325 | 45 | 270 | 1.0 | 1.0 | 0.00 | 0.00 | 0.00 | 63 | 1014.9 |
| 20260504040323 | 45 | 270 | 0.0 | 0.0 | 0.00 | 0.00 | 0.00 | 62 | 1014.9 |
| 20260504035329 | 46 | 270 | 0.0 | 0.0 | 0.00 | 0.00 | 0.00 | 62 | 1014.9 |
| 20260504034344 | 46 | 270 | 0.0 | 0.0 | 0.00 | 0.00 | 0.00 | 60 | 1014.9 |
| 20260504033427 | 46 | 270 | 0.0 | 0.0 | 0.00 | 0.00 | 0.00 | 59 | 1015.0 |
| 20260504033329 | 46 | 270 | 0.0 | 1.0 | 0.00 | 0.00 | 0.00 | 59 | 1015.0 |
| 20260504032327 | 47 | 270 | 0.0 | 1.0 | 0.00 | 0.00 | 0.00 | 59 | 1015.1 |
| 20260504030328 | 47 | 270 | 0.0 | 0.0 | 0.00 | 0.00 | 0.00 | 56 | 1015.0 |
| 20260504025328 | 48 | 270 | 0.0 | 0.0 | 0.00 | 0.00 | 0.00 | 56 | 1015.1 |
| 20260504025230 | 48 | 270 | 0.0 | 0.0 | 0.00 | 0.00 | 0.00 | 56 | 1015.1 |
| 20260504024327 | 48 | 270 | 0.0 | 0.0 | 0.00 | 0.00 | 0.00 | 56 | 1015.2 |
| 20260504022328 | 49 | 270 | 0.0 | 0.0 | 0.00 | 0.00 | 0.00 | 52 | 1015.4 |
| 20260504022244 | 49 | 270 | 0.0 | 0.0 | 0.00 | 0.00 | 0.00 | 51 | 1015.4 |
| 20260504021227 | 49 | 270 | 0.0 | 0.0 | 0.00 | 0.00 | 0.00 | 51 | 1015.4 |
| 20260504020227 | 49 | 270 | 0.0 | 0.0 | 0.00 | 0.00 | 0.00 | 50 | 1015.4 |
| 20260504015229 | 50 | 270 | 0.0 | 0.0 | 0.00 | 0.00 | 0.00 | 49 | 1015.3 |
| 20260504014227 | 50 | 270 | 0.0 | 0.0 | 0.00 | 0.00 | 0.00 | 49 | 1015.4 |
| 20260504013229 | 50 | 270 | 0.0 | 1.0 | 0.00 | 0.00 | 0.00 | 47 | 1015.3 |
| 20260504012327 | 51 | 270 | 0.0 | 0.0 | 0.00 | 0.00 | 0.00 | 45 | 1015.2 |
| 20260504011342 | 51 | 270 | 0.0 | 0.0 | 0.00 | 0.00 | 0.00 | 45 | 1015.2 |
| 20260504011244 | 51 | 270 | 0.0 | 0.0 | 0.00 | 0.00 | 0.00 | 44 | 1015.2 |
| 20260504011127 | 52 | 270 | 0.0 | 0.0 | 0.00 | 0.00 | 0.00 | 45 | 1015.2 |
| 20260504010128 | 52 | 270 | 0.0 | 0.0 | 0.00 | 0.00 | 0.00 | 43 | 1015.2 |
| 20260504010028 | 52 | 270 | 0.0 | 0.0 | 0.00 | 0.00 | 0.00 | 43 | 1015.2 |
| 20260504005127 | 52 | 270 | 0.0 | 0.0 | 0.00 | 0.00 | 0.00 | 43 | 1015.3 |
| 20260504004128 | 53 | 270 | 0.0 | 1.0 | 0.00 | 0.00 | 0.00 | 42 | 1015.3 |
| 20260504003226 | 53 | 270 | 0.0 | 2.0 | 0.00 | 0.00 | 0.00 | 41 | 1015.2 |
| 20260504001343 | 54 | 270 | 4.0 | 5.0 | 0.00 | 0.00 | 0.00 | 40 | 1015.2 |
| 20260504001229 | 54 | 270 | 2.0 | 4.0 | 0.00 | 0.00 | 0.00 | 41 | 1015.1 |
| 20260504000227 | 54 | 270 | 3.0 | 4.0 | 0.00 | 0.00 | 0.00 | 41 | 1015.1 |
| 20260503235227 | 55 | 270 | 4.0 | 5.0 | 0.00 | 0.00 | 0.00 | 39 | 1015.2 |
| 20260503235143 | 55 | 270 | 3.0 | 6.0 | 0.00 | 0.00 | 0.00 | 40 | 1015.3 |
| 20260503234129 | 55 | 247 | 3.0 | 6.0 | 0.00 | 0.00 | 0.00 | 39 | 1015.3 |
| 20260503234045 | 55 | 247 | 1.0 | 4.0 | 0.00 | 0.00 | 0.00 | 38 | 1015.2 |
| 20260503233044 | 56 | 247 | 3.0 | 4.0 | 0.00 | 0.00 | 0.00 | 39 | 1015.5 |
| 20260503232027 | 56 | 270 | 1.0 | 5.0 | 0.00 | 0.00 | 0.00 | 37 | 1015.5 |
| 20260503230128 | 57 | 270 | 4.0 | 6.0 | 0.00 | 0.00 | 0.00 | 36 | 1015.6 |
| 20260503224227 | 57 | 252 | 6.0 | 10.0 | 0.00 | 0.00 | 0.00 | 36 | 1015.6 |
| 20260503223228 | 58 | 270 | 4.0 | 7.0 | 0.00 | 0.00 | 0.00 | 36 | 1015.7 |
| 20260503220329 | 56 | 253 | 5.0 | 10.0 | 0.00 | 0.00 | 0.00 | 37 | 1015.7 |
| 20260503215427 | 57 | 244 | 6.0 | 12.0 | 0.00 | 0.00 | 0.00 | 36 | 1015.7 |
| 20260503215328 | 57 | 249 | 5.0 | 12.0 | 0.00 | 0.00 | 0.00 | 35 | 1015.8 |
| 20260503214345 | 56 | 258 | 5.0 | 8.0 | 0.00 | 0.00 | 0.00 | 36 | 1015.7 |
| 20260503213443 | 57 | 270 | 6.0 | 9.0 | 0.00 | 0.00 | 0.00 | 35 | 1015.5 |
| 20260503212429 | 57 | 221 | 4.0 | 6.0 | 0.00 | 0.00 | 0.00 | 35 | 1015.6 |
| 20260503211527 | 57 | 269 | 9.0 | 13.0 | 0.00 | 0.00 | 0.00 | 36 | 1015.5 |
| 20260503210544 | 57 | 270 | 12.0 | 16.0 | 0.00 | 0.00 | 0.00 | 35 | 1015.4 |
| 20260503204544 | 57 | 271 | 9.0 | 15.0 | 0.00 | 0.00 | 0.00 | 34 | 1015.8 |
| 20260503202528 | 56 | 263 | 9.0 | 14.0 | 0.00 | 0.00 | 0.00 | 37 | 1016.0 |
| 20260503201526 | 56 | 282 | 10.0 | 16.0 | 0.00 | 0.00 | 0.00 | 36 | 1016.0 |
| 20260503195628 | 56 | 266 | 15.0 | 26.0 | 0.00 | 0.00 | 0.00 | 36 | 1016.3 |
| 20260503194627 | 56 | 267 | 9.0 | 15.0 | 0.00 | 0.00 | 0.00 | 36 | 1016.6 |
| 20260503193627 | 56 | 264 | 5.0 | 9.0 | 0.00 | 0.00 | 0.00 | 38 | 1016.5 |
| 20260503193528 | 56 | 277 | 12.0 | 17.0 | 0.00 | 0.00 | 0.00 | 37 | 1016.5 |
| 20260503192627 | 56 | 271 | 13.0 | 17.0 | 0.00 | 0.00 | 0.00 | 37 | 1016.6 |
| 20260503192527 | 56 | 287 | 17.0 | 21.0 | 0.00 | 0.00 | 0.00 | 36 | 1016.5 |
| 20260503192428 | 56 | 286 | 13.0 | 18.0 | 0.00 | 0.00 | 0.00 | 36 | 1016.6 |
| 20260503191526 | 56 | 270 | 11.0 | 15.0 | 0.00 | 0.00 | 0.00 | 37 | 1016.8 |
| 20260503190527 | 56 | 270 | 8.0 | 12.0 | 0.00 | 0.00 | 0.00 | 39 | 1017.1 |
| 20260503185528 | 55 | 272 | 10.0 | 18.0 | 0.00 | 0.00 | 0.00 | 39 | 1017.1 |
| 20260503185429 | 55 | 279 | 11.0 | 18.0 | 0.00 | 0.00 | 0.00 | 40 | 1017.1 |
| 20260503184429 | 55 | 266 | 5.0 | 8.0 | 0.00 | 0.00 | 0.00 | 39 | 1017.4 |
| 20260503183443 | 54 | 298 | 7.0 | 12.0 | 0.00 | 0.00 | 0.00 | 39 | 1017.3 |
| 20260503181528 | 54 | 251 | 7.0 | 12.0 | 0.00 | 0.00 | 0.00 | 38 | 1017.4 |
| 20260503180626 | 54 | 262 | 4.0 | 7.0 | 0.00 | 0.00 | 0.00 | 38 | 1017.6 |
| 20260503175628 | 53 | 271 | 12.0 | 20.0 | 0.00 | 0.00 | 0.00 | 38 | 1017.7 |
| 20260503173643 | 53 | 293 | 13.0 | 18.0 | 0.00 | 0.00 | 0.00 | 38 | 1017.8 |
| 20260503171729 | 53 | 269 | 7.0 | 10.0 | 0.00 | 0.00 | 0.00 | 39 | 1018.1 |
| 20260503170827 | 53 | 270 | 13.0 | 16.0 | 0.00 | 0.00 | 0.00 | 39 | 1017.9 |
| 20260503150628 | 48 | 268 | 11.0 | 17.0 | 0.00 | 0.00 | 0.00 | 44 | 1018.8 |
| 20260503131328 | 42 | 270 | 5.0 | 7.0 | 0.00 | 0.00 | 0.00 | 62 | 1019.3 |
| 20260503130327 | 42 | 270 | 7.0 | 8.0 | 0.00 | 0.00 | 0.00 | 63 | 1019.2 |
| 20260503110427 | 34 | 270 | 0.0 | 0.0 | 0.00 | 0.00 | 0.00 | 88 | 1017.8 |
| 20260503110328 | 34 | 270 | 0.0 | 0.0 | 0.00 | 0.00 | 0.00 | 89 | 1017.8 |
| 20260503090326 | 34 | 270 | 2.0 | 3.0 | 0.00 | 0.00 | 0.00 | 83 | 1016.8 |
| 20260503081430 | 36 | 270 | 3.0 | 4.0 | 0.00 | 0.00 | 0.00 | 78 | 1016.9 |
| 20260503080444 | 36 | 270 | 4.0 | 6.0 | 0.00 | 0.00 | 0.00 | 77 | 1016.8 |
| 20260503072626 | 35 | 315 | 2.0 | 3.0 | 0.00 | 0.00 | 0.00 | 79 | 1016.6 |
| 20260503071627 | 35 | 315 | 2.0 | 3.0 | 0.00 | 0.00 | 0.00 | 81 | 1016.6 |
| 20260503054828 | 36 | 315 | 2.0 | 2.0 | 0.00 | 0.00 | 0.00 | 75 | 1016.6 |
| 20260503054745 | 36 | 315 | 2.0 | 3.0 | 0.00 | 0.00 | 0.00 | 76 | 1016.6 |
| 20260503053743 | 37 | 315 | 2.0 | 2.0 | 0.00 | 0.00 | 0.00 | 75 | 1016.7 |
| 20260503053643 | 37 | 315 | 2.0 | 2.0 | 0.00 | 0.00 | 0.00 | 75 | 1016.7 |
| 20260503051627 | 37 | 315 | 3.0 | 4.0 | 0.00 | 0.00 | 0.00 | 74 | 1016.8 |
| 20260503050626 | 37 | 315 | 3.0 | 3.0 | 0.00 | 0.00 | 0.00 | 74 | 1016.8 |
| 20260503045643 | 38 | 315 | 3.0 | 3.0 | 0.00 | 0.00 | 0.00 | 74 | 1016.9 |